When you browse on this site, cookies collect data to enhance your experience and personalize the content and advertising you see.
Visit our Privacy Policy to learn more. By continuing to use the site, you agree to this use of cookies and data.
  • In Hungary
  • List of Countries
  • For 7 days
  • Water Temperature
  • Weather Map
  • News
  • Weather Widgets
  • user-avatar
    Login

    Hourly Weather Burenino

    Today, 7 June, Sunday

    Time Temperature Precipitation Wind Pressure Humidity
    00:00 +18°C° 0 mm 1 mps 754 mmHg 82%
    01:00 +16°C° 0 mm 0 mps 754 mmHg 82%
    02:00 +18°C° 0 mm 1 mps 755 mmHg 83%
    03:00 +18°C° 0 mm 1 mps 755 mmHg 83%
    04:00 +16°C° 0 mm 2 mps 755 mmHg 84%
    05:00 +17°C° 0.2 mm 2 mps 755 mmHg 83%
    06:00 +18°C° 0.2 mm 3 mps 755 mmHg 82%
    07:00 +19°C° 0.2 mm 3 mps 755 mmHg 81%
    08:00 +19°C° 0.5 mm 3 mps 755 mmHg 80%
    09:00 +19°C° 0.5 mm 3 mps 755 mmHg 79%
    10:00 +20°C° 0.5 mm 3 mps 755 mmHg 78%
    11:00 +20°C° 0.5 mm 3 mps 755 mmHg 79%
    12:00 +19°C° 0.5 mm 2 mps 755 mmHg 80%
    13:00 +19°C° 0.5 mm 2 mps 755 mmHg 82%
    14:00 +20°C° 0.3 mm 2 mps 755 mmHg 79%
    15:00 +20°C° 0.3 mm 2 mps 755 mmHg 77%
    16:00 +21°C° 0.3 mm 2 mps 755 mmHg 75%
    17:00 +20°C° 1 mm 3 mps 755 mmHg 80%
    18:00 +19°C° 1 mm 3 mps 754 mmHg 85%
    19:00 +19°C° 1 mm 4 mps 754 mmHg 90%
    20:00 +18°C° 0.3 mm 3 mps 754 mmHg 92%
    21:00 +17°C° 0.3 mm 3 mps 755 mmHg 93%
    22:00 +17°C° 0.3 mm 3 mps 755 mmHg 95%
    23:00 +16°C° 0 mm 2 mps 755 mmHg 96%

    Tomorrow, 8 June, Monday

    Time Temperature Precipitation Wind Pressure Humidity
    00:00 +16°C° 0 mm 2 mps 754 mmHg 96%
    01:00 +16°C° 0 mm 2 mps 754 mmHg 97%
    02:00 +15°C° 0 mm 2 mps 754 mmHg 96%
    03:00 +15°C° 0 mm 2 mps 754 mmHg 96%
    04:00 +15°C° 0 mm 2 mps 755 mmHg 96%
    05:00 +16°C° 0.2 mm 2 mps 754 mmHg 93%
    06:00 +17°C° 0.2 mm 2 mps 754 mmHg 91%
    07:00 +18°C° 0.2 mm 2 mps 754 mmHg 89%
    08:00 +19°C° 1 mm 3 mps 755 mmHg 83%
    09:00 +21°C° 1 mm 3 mps 755 mmHg 77%
    10:00 +22°C° 1 mm 3 mps 755 mmHg 71%
    11:00 +23°C° 2.1 mm 4 mps 755 mmHg 69%
    12:00 +23°C° 2.1 mm 4 mps 755 mmHg 66%
    13:00 +25°C° 2.1 mm 5 mps 755 mmHg 63%
    14:00 +25°C° 0.7 mm 5 mps 755 mmHg 62%
    15:00 +25°C° 0.7 mm 5 mps 755 mmHg 60%
    16:00 +25°C° 0.7 mm 4 mps 755 mmHg 58%
    17:00 +25°C° 0.3 mm 4 mps 754 mmHg 61%
    18:00 +23°C° 0.3 mm 4 mps 754 mmHg 63%
    19:00 +22°C° 0.3 mm 4 mps 754 mmHg 66%
    20:00 +20°C° 0.1 mm 4 mps 754 mmHg 68%
    21:00 +19°C° 0.1 mm 4 mps 754 mmHg 69%
    22:00 +18°C° 0.1 mm 3 mps 755 mmHg 70%
    23:00 +18°C° 0 mm 3 mps 755 mmHg 69%

    Day after tomorrow, 9 June, Tuesday

    Time Temperature Precipitation Wind Pressure Humidity
    00:00 +18°C° 0 mm 4 mps 755 mmHg 67%
    01:00 +17°C° 0 mm 4 mps 755 mmHg 65%
    02:00 +18°C° 0 mm 4 mps 755 mmHg 64%
    03:00 +18°C° 0 mm 4 mps 755 mmHg 63%
    04:00 +17°C° 0 mm 5 mps 755 mmHg 61%
    05:00 +19°C° 0 mm 5 mps 756 mmHg 62%
    06:00 +19°C° 0 mm 6 mps 756 mmHg 62%
    07:00 +19°C° 0 mm 6 mps 756 mmHg 62%
    08:00 +21°C° 0 mm 7 mps 757 mmHg 58%
    09:00 +23°C° 0 mm 7 mps 757 mmHg 54%
    10:00 +26°C° 0 mm 8 mps 757 mmHg 51%
    11:00 +27°C° 0 mm 8 mps 757 mmHg 47%
    12:00 +28°C° 0 mm 8 mps 757 mmHg 43%
    13:00 +29°C° 0 mm 7 mps 757 mmHg 39%
    14:00 +29°C° 0 mm 7 mps 757 mmHg 40%
    15:00 +29°C° 0 mm 7 mps 757 mmHg 41%
    16:00 +29°C° 0 mm 6 mps 757 mmHg 42%
    17:00 +28°C° 0 mm 6 mps 757 mmHg 47%
    18:00 +27°C° 0 mm 5 mps 757 mmHg 52%
    19:00 +26°C° 0 mm 5 mps 757 mmHg 57%
    20:00 +25°C° 0 mm 5 mps 757 mmHg 57%
    21:00 +23°C° 0 mm 6 mps 757 mmHg 56%
    22:00 +22°C° 0 mm 6 mps 758 mmHg 55%
    23:00 +21°C° 0 mm 6 mps 758 mmHg 56%

    10 June, Wednesday

    Time Temperature Precipitation Wind Pressure Humidity
    00:00 +20°C° 0 mm 5 mps 758 mmHg 56%
    01:00 +20°C° 0 mm 4 mps 758 mmHg 56%
    02:00 +19°C° 0 mm 4 mps 758 mmHg 56%
    03:00 +19°C° 0 mm 4 mps 758 mmHg 57%
    04:00 +18°C° 0 mm 4 mps 758 mmHg 57%
    05:00 +19°C° 0 mm 4 mps 758 mmHg 59%
    06:00 +19°C° 0 mm 5 mps 758 mmHg 61%
    07:00 +20°C° 0 mm 5 mps 758 mmHg 63%
    08:00 +21°C° 0 mm 4 mps 758 mmHg 61%
    09:00 +23°C° 0 mm 4 mps 758 mmHg 59%
    10:00 +25°C° 0 mm 4 mps 758 mmHg 57%
    11:00 +25°C° 0 mm 3 mps 758 mmHg 59%
    12:00 +25°C° 0 mm 3 mps 758 mmHg 61%
    13:00 +24°C° 0 mm 3 mps 758 mmHg 63%
    14:00 +26°C° 0 mm 3 mps 758 mmHg 58%
    15:00 +27°C° 0 mm 4 mps 758 mmHg 54%
    16:00 +28°C° 0 mm 4 mps 758 mmHg 49%
    17:00 +27°C° 0 mm 4 mps 758 mmHg 52%
    18:00 +26°C° 0 mm 3 mps 758 mmHg 56%
    19:00 +26°C° 0 mm 3 mps 758 mmHg 59%
    20:00 +25°C° 0 mm 3 mps 758 mmHg 57%
    21:00 +22°C° 0 mm 3 mps 758 mmHg 56%
    22:00 +21°C° 0 mm 4 mps 757 mmHg 54%
    23:00 +21°C° 0 mm 4 mps 757 mmHg 54%

    11 June, Thursday

    Time Temperature Precipitation Wind Pressure Humidity
    00:00 +21°C° 0 mm 4 mps 757 mmHg 53%
    01:00 +21°C° 0 mm 4 mps 757 mmHg 53%
    02:00 +20°C° 0 mm 4 mps 757 mmHg 55%
    03:00 +20°C° 0 mm 3 mps 757 mmHg 57%
    04:00 +19°C° 0 mm 3 mps 757 mmHg 58%
    05:00 +20°C° 0 mm 3 mps 757 mmHg 61%
    06:00 +21°C° 0 mm 4 mps 757 mmHg 63%
    07:00 +21°C° 0 mm 4 mps 757 mmHg 65%
    08:00 +23°C° 0 mm 4 mps 757 mmHg 61%
    09:00 +26°C° 0 mm 5 mps 757 mmHg 58%
    10:00 +28°C° 0 mm 5 mps 757 mmHg 54%
    11:00 +29°C° 0 mm 5 mps 757 mmHg 49%
    12:00 +32°C° 0 mm 5 mps 757 mmHg 44%
    13:00 +33°C° 0 mm 5 mps 757 mmHg 39%
    14:00 +33°C° 0 mm 5 mps 756 mmHg 38%
    15:00 +33°C° 0 mm 4 mps 756 mmHg 38%
    16:00 +33°C° 0 mm 4 mps 755 mmHg 38%
    17:00 +31°C° 0 mm 3 mps 755 mmHg 43%
    18:00 +30°C° 0 mm 3 mps 755 mmHg 47%
    19:00 +29°C° 0 mm 2 mps 755 mmHg 52%
    20:00 +28°C° 0 mm 2 mps 755 mmHg 51%
    21:00 +26°C° 0 mm 2 mps 755 mmHg 50%
    22:00 +25°C° 0 mm 2 mps 755 mmHg 50%
    23:00 +24°C° 0 mm 2 mps 754 mmHg 50%

    12 June, Friday

    Time Temperature Precipitation Wind Pressure Humidity
    00:00 +24°C° 0 mm 2 mps 754 mmHg 50%
    01:00 +23°C° 0 mm 2 mps 754 mmHg 51%
    02:00 +21°C° 0 mm 2 mps 754 mmHg 51%
    03:00 +22°C° 0 mm 1 mps 753 mmHg 52%
    04:00 +21°C° 0 mm 1 mps 753 mmHg 53%
    05:00 +22°C° 0.3 mm 1 mps 753 mmHg 55%
    06:00 +23°C° 0.3 mm 1 mps 753 mmHg 58%
    07:00 +24°C° 0.3 mm 1 mps 753 mmHg 60%
    08:00 +25°C° 0.2 mm 1 mps 753 mmHg 57%
    09:00 +27°C° 0.2 mm 2 mps 753 mmHg 53%
    10:00 +28°C° 0.2 mm 2 mps 753 mmHg 50%
    11:00 +29°C° 0 mm 2 mps 752 mmHg 45%
    12:00 +30°C° 0 mm 2 mps 752 mmHg 41%
    13:00 +31°C° 0 mm 2 mps 752 mmHg 37%
    14:00 +32°C° 0 mm 2 mps 752 mmHg 36%
    15:00 +32°C° 0 mm 2 mps 751 mmHg 35%
    16:00 +32°C° 0 mm 2 mps 751 mmHg 35%
    17:00 +31°C° 0 mm 2 mps 751 mmHg 39%
    18:00 +31°C° 0 mm 1 mps 750 mmHg 44%
    19:00 +30°C° 0 mm 1 mps 750 mmHg 48%
    20:00 +27°C° 0.4 mm 2 mps 750 mmHg 58%
    21:00 +24°C° 0.4 mm 3 mps 750 mmHg 67%
    22:00 +19°C° 0.4 mm 4 mps 750 mmHg 77%
    23:00 +20°C° 0.1 mm 3 mps 750 mmHg 73%
    Show more